Cape May, NJ NWLON current weather conditions

sailwx.info

Wind from 296 at 13 knots gusting 18

Air temperature 6.7° C
Water temperature 6.7° C

Last reported at 2019-Dec-05 18:42 UTC.
Time now 2019-Dec-05 19:39 UTC

Location: N 38°58' W 074°58'.
View on Google Maps.

See reports from other nearby stations

  
Tides and Currents Weather Stations Pressure Air Temp Water Temp Dewpoint Dewpoint Depression Visibility Wind Speed Wind Dir Waves Ship Positions
date/time (UTC)wind fromknots sea level pressurealtimeterstation pressurevisibilityair tempwater tempwave heightnotes
2019-Dec-05 18:42 296 13 gusting 18 6.7 6.7
2019-Dec-05 18:36 292 13 gusting 18 6.1 6.7
2019-Dec-05 18:30 297 15 gusting 22 6.1 6.1
2019-Dec-05 18:24 302 16 gusting 21 5.6 6.1
2019-Dec-05 18:18 302 16 gusting 20 5.6 6.1
2019-Dec-05 18:12 303 17 gusting 21 5.6 6.1
2019-Dec-05 18:06 304 16 gusting 20 5.6 6.1
2019-Dec-05 18:00 305 16 gusting 23 5.6 6.1
2019-Dec-05 17:54 306 18 gusting 24 5.6 6.1
2019-Dec-05 17:48 308 16 gusting 21 5.6 6.1
2019-Dec-05 17:42 310 17 gusting 24 5.6 6.1
2019-Dec-05 17:36 310 18 gusting 25 5.6 6.1
2019-Dec-05 17:30 306 17 gusting 22 5.6
2019-Dec-05 17:24 303 16 gusting 23 5.6
2019-Dec-05 17:18 305 19 gusting 26 5.6
2019-Dec-05 17:12 303 19 gusting 24 5.6
2019-Dec-05 17:06 295 21 gusting 26 5.6
2019-Dec-05 17:00 299 19 gusting 26 5.6
2019-Dec-05 16:54 299 19 gusting 26 5.6
2019-Dec-05 16:48 296 19 gusting 26 5.6
2019-Dec-05 16:42 299 19 gusting 25 5.6
2019-Dec-05 16:36 303 19 gusting 27 5.6
2019-Dec-05 16:30 293 19 gusting 27 5.6
2019-Dec-05 16:24 298 15 gusting 21 6.1 6.1
2019-Dec-05 16:18 295 18 gusting 23 5.6 6.1
2019-Dec-05 16:12 300 17 gusting 22 5.6 6.1
2019-Dec-05 16:06 298 20 gusting 26 5.6 6.1
2019-Dec-05 16:00 294 18 gusting 25 6.1 6.1
2019-Dec-05 15:54 300 21 gusting 26 6.1 6.1
2019-Dec-05 15:48 296 17 gusting 22 6.1 6.1
2019-Dec-05 15:42 290 19 gusting 23 5.6 6.1
2019-Dec-05 15:36 296 20 gusting 26 6.1 6.1
2019-Dec-05 15:30 294 17 gusting 24 6.7 6.1
2019-Dec-05 15:24 298 15 gusting 21 6.7 6.1
2019-Dec-05 15:18 301 13 gusting 19 6.7 6.1
2019-Dec-05 15:12 300 16 gusting 24 6.1 6.1
2019-Dec-05 15:06 298 19 gusting 26 6.1 6.1
2019-Dec-05 15:00 297 19 gusting 28 6.7 6.1
2019-Dec-05 14:54 297 19 gusting 24 6.1 6.1
2019-Dec-05 14:48 291 19 gusting 24 6.1 6.1
2019-Dec-05 14:42 294 19 gusting 25 6.1 6.1
2019-Dec-05 14:36 292 20 gusting 25 6.1 6.1
2019-Dec-05 14:30 291 18 gusting 24 6.1 6.1
2019-Dec-05 14:24 289 17 gusting 21 5.6 6.1
2019-Dec-05 14:18 287 17 gusting 24 5.6 6.1
2019-Dec-05 14:12 285 21 gusting 25 5.6 6.1
2019-Dec-05 14:06 285 19 gusting 28 5.6 6.1
2019-Dec-05 14:00 286 19 gusting 25 6.1 6.1
2019-Dec-05 13:54 284 22 gusting 26 5.6 6.1
2019-Dec-05 13:48 287 18 gusting 25 5.6 6.1
2019-Dec-05 13:42 284 20 gusting 24 5.6 6.1
2019-Dec-05 13:36 289 20 gusting 26 5.6 6.1
2019-Dec-05 13:30 285 21 gusting 27 5.6 6.1
2019-Dec-05 13:24 288 21 gusting 27 5.6 6.1
2019-Dec-05 13:18 288 22 gusting 26 5.6 6.1
2019-Dec-05 13:12 289 19 gusting 25 5.6 6.1
2019-Dec-05 13:06 288 22 gusting 26 5.6 6.1
2019-Dec-05 13:00 287 20 gusting 26 5.6 6.1
2019-Dec-05 12:54 292 20 gusting 26 5.6 6.1
2019-Dec-05 12:48 292 23 gusting 28 5.6 6.1
2019-Dec-05 12:42 294 21 gusting 28 5.6 6.1
2019-Dec-05 12:36 290 23 gusting 27 5.6 6.1
2019-Dec-05 12:30 294 22 gusting 30 5.6 6.1
2019-Dec-05 12:24 287 22 gusting 28 5.6 6.1
2019-Dec-05 12:18 291 19 gusting 26 5.6 6.1
2019-Dec-05 12:12 289 17 gusting 25 5.6 6.1
2019-Dec-05 12:06 289 19 gusting 23 5.6 6.1
2019-Dec-05 12:00 286 20 gusting 26 5.6 6.1
2019-Dec-05 11:54 284 14 gusting 24 5.6 6.1
2019-Dec-05 11:48 287 19 gusting 23 5.6 6.1
2019-Dec-05 11:42 291 18 gusting 26 5.6 6.1
2019-Dec-05 11:36 286 21 gusting 26 5.6 6.1
2019-Dec-05 11:30 285 19 gusting 27 5.6 6.1
2019-Dec-05 11:24 285 20 gusting 27 5.6 6.1
2019-Dec-05 11:18 287 21 gusting 26 5.6 6.1
2019-Dec-05 11:12 287 21 gusting 27 5.6 6.7
2019-Dec-05 11:06 287 19 gusting 26 5.6 6.7
2019-Dec-05 11:00 291 20 gusting 26 5.6 6.7
2019-Dec-05 10:54 288 19 gusting 26 5.6 6.7
2019-Dec-05 10:48 287 19 gusting 26 5.6 6.7
2019-Dec-05 10:42 286 18 gusting 23 5.6 6.7
2019-Dec-05 10:36 285 19 gusting 24 5.6 6.7
2019-Dec-05 10:30 284 17 gusting 24 5.6 6.7
2019-Dec-05 10:24 282 19 gusting 23 5.6 6.7
2019-Dec-05 10:18 281 16 gusting 24 5.6 6.7
2019-Dec-05 10:12 284 17 gusting 22 5.6 6.7
2019-Dec-05 10:06 285 19 gusting 22 5.6 6.7
2019-Dec-05 10:00 287 18 gusting 21 5.6 6.7
2019-Dec-05 09:54 283 16 gusting 22 5.6 6.7
2019-Dec-05 09:48 282 18 gusting 24 5.6 6.7
2019-Dec-05 09:42 284 17 gusting 22 5.6 6.7
2019-Dec-05 09:36 288 16 gusting 23 5.6 6.7
2019-Dec-05 09:30 287 16 gusting 22 6.1 6.7
2019-Dec-05 09:24 288 18 gusting 21 5.6 6.7
2019-Dec-05 09:18 288 16 gusting 22 5.6 6.7
2019-Dec-05 09:12 292 16 gusting 22 6.1 6.7
2019-Dec-05 09:06 292 19 gusting 24 5.6 6.7
2019-Dec-05 09:00 292 18 gusting 23 5.6 6.7
2019-Dec-05 08:54 292 19 gusting 24 6.1 6.7
2019-Dec-05 08:48 291 19 gusting 25 5.6 6.7
2019-Dec-05 08:42 298 19 gusting 23 5.6 6.7
2019-Dec-05 08:36 293 16 gusting 19 5.6 6.7
2019-Dec-05 08:30 288 15 gusting 20 5.6 6.7
2019-Dec-05 08:24 291 18 gusting 22 5.6 6.7
2019-Dec-05 08:18 286 19 gusting 23 5.6 6.7
2019-Dec-05 08:12 281 13 gusting 18 5.6 6.7
2019-Dec-05 08:06 280 13 gusting 18 5.6 6.7
2019-Dec-05 08:00 279 13 gusting 15 5.6 6.7
2019-Dec-05 07:54 278 12 gusting 16 5.6 6.7
2019-Dec-05 07:48 288 12 gusting 18 6.1 6.7
2019-Dec-05 07:42 286 14 gusting 18 6.1 6.7
2019-Dec-05 07:36 287 14 gusting 16 6.1 7.2
2019-Dec-05 07:30 293 14 gusting 18 6.1 7.2
2019-Dec-05 07:24 293 17 gusting 19 6.1 7.2
2019-Dec-05 07:18 296 13 gusting 18 6.1 7.2
2019-Dec-05 07:12 290 14 gusting 18 6.1 7.2
2019-Dec-05 07:06 284 13 gusting 16 6.1 7.2
2019-Dec-05 07:00 288 13 gusting 16 5.6 7.2
2019-Dec-05 06:54 286 13 gusting 17 5.6 6.7
2019-Dec-05 06:48 282 12 gusting 14 5.6 7.2
2019-Dec-05 06:42 283 11 gusting 14 5.6 6.7
2019-Dec-05 06:36 283 11 gusting 15 5.6 7.2
2019-Dec-05 06:30 285 12 gusting 17 5.6 7.2
2019-Dec-05 06:24 283 12 gusting 16 6.1 7.2
2019-Dec-05 06:18 282 14 gusting 17 6.1 7.2
2019-Dec-05 06:12 280 13 gusting 17 6.1 7.2
2019-Dec-05 06:06 276 13 gusting 16 6.1 7.2
2019-Dec-05 06:00 277 13 gusting 16 6.1 6.7
2019-Dec-05 05:54 279 13 gusting 16 6.1 7.2
2019-Dec-05 05:48 277 13 gusting 16 6.1 7.2
2019-Dec-05 05:42 275 13 gusting 17 6.1 7.2
2019-Dec-05 05:36 277 13 gusting 16 6.1 7.2
2019-Dec-05 05:30 268 13 gusting 16 6.1 7.2
2019-Dec-05 05:24 276 14 gusting 18 6.1 7.2
2019-Dec-05 05:18 270 14 gusting 17 6.1 7.2
2019-Dec-05 05:12 276 13 gusting 16 6.1 6.7
2019-Dec-05 05:06 270 13 gusting 17 6.1 6.7
2019-Dec-05 05:00 267 13 gusting 15 6.1 6.7
2019-Dec-05 04:54 257 12 gusting 14 6.1 6.7
2019-Dec-05 04:48 255 11 gusting 12 6.1 6.7
2019-Dec-05 04:42 259 10 gusting 12 6.1 6.7
2019-Dec-05 04:36 266 9 gusting 11 5.6 6.7
2019-Dec-05 04:30 265 10 gusting 14 5.6 6.7
2019-Dec-05 04:24 279 11 gusting 13 5.6 6.7
2019-Dec-05 04:18 278 10 gusting 13 5.6 6.7
2019-Dec-05 04:12 279 9 gusting 11 5.6 6.7
2019-Dec-05 04:06 287 7 gusting 9 5.6 6.7
2019-Dec-05 04:00 285 7 gusting 9 5.0 6.7
2019-Dec-05 03:54 295 6 gusting 9 5.0 6.7
2019-Dec-05 03:48 295 7 gusting 9 5.0 6.7
2019-Dec-05 03:42 301 6 gusting 7 4.4 6.7
2019-Dec-05 03:36 308 6 gusting 7 4.4 6.7
2019-Dec-05 03:30 314 3 gusting 7 5.0 6.7
2019-Dec-05 03:24 320 4 gusting 8 5.0 6.7
2019-Dec-05 03:18 325 6 gusting 10 5.0 6.7
2019-Dec-05 03:12 323 7 gusting 10 5.0 6.7
2019-Dec-05 03:06 331 7 gusting 13 5.0 6.7
2019-Dec-05 03:00 327 7 gusting 13 5.0 6.7
2019-Dec-05 02:54 325 9 gusting 13 5.0 6.7
2019-Dec-05 02:48 323 9 gusting 15 5.6 6.7
2019-Dec-05 02:42 310 13 gusting 19 5.6 6.7
2019-Dec-05 02:36 308 14 gusting 21 5.6 6.7
2019-Dec-05 02:30 301 16 gusting 20 5.6 6.7
2019-Dec-05 02:24 300 12 gusting 17 5.0 6.7
2019-Dec-05 02:18 302 13 gusting 19 5.0 6.7
2019-Dec-05 02:12 294 11 gusting 15 5.0 6.7
2019-Dec-05 02:06 318 9 gusting 13 5.0 6.7
2019-Dec-05 02:00 333 6 gusting 10 5.0 6.7
2019-Dec-05 01:54 337 6 gusting 10 5.0 6.7
2019-Dec-05 01:48 339 5 gusting 6 5.0 6.7
2019-Dec-05 01:42 339 5 gusting 6 5.0 6.7
2019-Dec-05 01:36 348 2 gusting 3 5.0 6.7
2019-Dec-05 01:30 359 3 gusting 5 5.0 6.7
2019-Dec-05 01:24 345 2 gusting 5 5.0 6.7
2019-Dec-05 01:18 343 3 gusting 7 5.0 6.7
2019-Dec-05 01:12 317 9 gusting 13 5.6 6.7
2019-Dec-05 01:06 286 9 gusting 13 5.6 6.7
2019-Dec-05 01:00 281 12 gusting 15 5.6 6.7
2019-Dec-05 00:54 281 12 gusting 17 5.6 6.7
2019-Dec-05 00:48 267 15 gusting 18 6.1 6.7
2019-Dec-05 00:42 269 16 gusting 19 6.1 6.7
2019-Dec-05 00:36 280 12 gusting 15 5.6 6.7
2019-Dec-05 00:30 280 12 gusting 15 6.7 6.7
2019-Dec-05 00:24 252 7 gusting 9 6.7 6.7
2019-Dec-05 00:18 238 7 gusting 8 6.7 6.7
2019-Dec-05 00:12 233 6 gusting 7 6.7 6.7
2019-Dec-05 00:06 232 6 gusting 6 6.7 6.7
2019-Dec-05 00:00 238 7 gusting 11 6.7 7.2
2019-Dec-04 23:48 233 8 gusting 9 6.7 7.2
2019-Dec-04 23:42 237 9 gusting 11 7.2 7.2
2019-Dec-04 23:36 234 10 gusting 11 7.2 7.2
2019-Dec-04 23:30 237 9 gusting 12 7.2 7.2
2019-Dec-04 23:24 242 9 gusting 11 7.2 7.2
2019-Dec-04 23:18 242 10 gusting 12 7.2 7.2
2019-Dec-04 23:12 241 9 gusting 11 7.2 7.2
2019-Dec-04 23:06 246 7 gusting 9 7.2 7.2
2019-Dec-04 23:00 243 8 gusting 10 7.2 7.2
2019-Dec-04 22:54 246 8 gusting 9 7.2 7.2
2019-Dec-04 22:48 249 9 gusting 12 7.2 7.2
2019-Dec-04 22:42 237 7 gusting 10 7.2 7.2
2019-Dec-04 22:36 246 9 gusting 9 7.2 7.2
2019-Dec-04 22:30 247 6 gusting 8 7.2 7.2
2019-Dec-04 22:24 248 6 gusting 9 7.2 7.2
2019-Dec-04 22:18 256 6 gusting 8 7.2 7.2
2019-Dec-04 22:12 268 5 gusting 9 7.2 7.2
2019-Dec-04 22:06 256 7 gusting 9 7.2 7.2
2019-Dec-04 22:00 255 7 gusting 9 7.2 7.2
2019-Dec-04 21:54 259 7 gusting 10 7.2 7.2
2019-Dec-04 21:48 251 9 gusting 12 7.2 7.2
2019-Dec-04 21:42 267 8 gusting 10 7.2 7.2
2019-Dec-04 21:36 264 8 gusting 11 7.2 7.2
2019-Dec-04 21:30 269 8 gusting 11 7.2 7.2
2019-Dec-04 21:24 266 9 gusting 11 7.2 7.2
2019-Dec-04 21:18 277 7 gusting 10 7.2 7.2
2019-Dec-04 21:12 278 6 gusting 9 7.2 7.2
2019-Dec-04 21:06 278 6 gusting 8 7.2 7.2
2019-Dec-04 21:00 269 6 gusting 8 7.2 7.2
2019-Dec-04 20:54 262 6 gusting 6 7.2 7.2
2019-Dec-04 20:48 265 6 gusting 7 7.2 7.2
2019-Dec-04 20:42 265 6 gusting 7 7.2 7.2
2019-Dec-04 20:36 264 5 gusting 7 7.2 7.2
2019-Dec-04 20:30 265 6 gusting 7 7.2 7.2
2019-Dec-04 20:24 262 6 gusting 6 6.7 7.2
2019-Dec-04 20:18 265 6 gusting 7 6.7 7.2
2019-Dec-04 20:12 261 6 gusting 8 6.7 7.2
2019-Dec-04 20:06 268 6 gusting 8 6.7 7.2
2019-Dec-04 20:00 283 6 gusting 6 6.7 7.2
2019-Dec-04 19:54 273 6 gusting 8 6.7 7.2
2019-Dec-04 19:48 274 6 gusting 8 6.7 7.2
2019-Dec-04 19:42 271 7 gusting 9 6.7 7.2
2019-Dec-04 19:36 270 6 gusting 9 6.7 7.2
2019-Dec-04 19:30 265 7 gusting 9 7.2 6.7
2019-Dec-04 19:24 270 7 gusting 8 6.7 6.7
2019-Dec-04 19:18 260 5 gusting 6 6.7 6.7
2019-Dec-04 19:12 270 3 gusting 4 6.7 6.7
2019-Dec-04 19:06 285 2 gusting 5 6.7 6.7
2019-Dec-04 19:00 293 2 gusting 4 7.2 6.7
2019-Dec-04 18:54 291 3 gusting 6 7.2 6.7
2019-Dec-04 18:48 304 1 gusting 6 7.8 6.7
2019-Dec-04 18:42 295 4 gusting 6 7.2 6.7
2019-Dec-04 18:36 295 3 gusting 6 6.7 6.7
2019-Dec-04 18:30 273 4 gusting 7 6.7 6.7
2019-Dec-04 18:24 280 6 gusting 7 6.1 6.7
2019-Dec-04 18:18 264 5 gusting 6 5.6 6.7
2019-Dec-04 18:12 260 5 gusting 6 5.6 6.7
2019-Dec-04 18:06 252 5 gusting 7 5.6 6.7
2019-Dec-04 18:00 255 6 gusting 7 5.6 6.7
2019-Dec-04 17:54 259 5 gusting 6 5.0 6.7
2019-Dec-04 17:48 249 6 gusting 6 5.6 6.7
2019-Dec-04 17:42 253 5 gusting 6 5.6 6.7
2019-Dec-04 17:36 249 5 gusting 6 5.6 6.7
2019-Dec-04 17:30 243 5 gusting 6 5.6 6.7
2019-Dec-04 17:24 252 5 gusting 6 5.0 6.7
2019-Dec-04 17:18 253 5 gusting 7 5.0 6.7
2019-Dec-04 17:12 256 5 gusting 6 5.0 6.7
2019-Dec-04 17:06 260 6 gusting 7 5.0 6.7
2019-Dec-04 17:00 259 6 gusting 7 5.0 6.7
2019-Dec-04 16:54 269 6 gusting 9 5.0 6.7
2019-Dec-04 16:48 270 7 gusting 8 5.0 6.7
2019-Dec-04 16:42 284 6 gusting 8 5.6 6.7
2019-Dec-04 16:36 287 6 gusting 10 5.6 6.7
2019-Dec-04 16:30 292 7 gusting 11 5.6 6.7
2019-Dec-04 16:24 299 9 gusting 12 5.6 6.7
2019-Dec-04 16:18 282 7 gusting 9 5.0 6.7
2019-Dec-04 16:12 284 8 gusting 10 5.6 6.7
2019-Dec-04 16:06 281 8 gusting 10 5.6 6.7
2019-Dec-04 16:00 289 9 gusting 11 5.6 6.7
2019-Dec-04 15:54 291 8 gusting 10 5.6 6.7
2019-Dec-04 15:48 287 8 gusting 10 5.6 6.7
2019-Dec-04 15:42 284 7 gusting 9 5.6 6.7
2019-Dec-04 15:36 276 7 gusting 8 5.0 6.7
2019-Dec-04 15:30 284 6 gusting 8 5.0 6.7
2019-Dec-04 15:24 289 6 gusting 8 5.6 6.1
2019-Dec-04 15:18 290 6 gusting 8 6.1 6.1
2019-Dec-04 15:12 282 5 gusting 7 5.6 6.1
2019-Dec-04 15:06 292 5 gusting 7 5.6 6.1
2019-Dec-04 15:00 278 5 gusting 6 4.4 6.1
2019-Dec-04 14:54 298 5 gusting 6 5.0 6.1
2019-Dec-04 14:48 282 3 gusting 4 4.4 6.1
2019-Dec-04 14:42 297 3 gusting 5 4.4 6.1
2019-Dec-04 14:36 286 4 gusting 7 4.4 6.1
2019-Dec-04 14:30 291 5 gusting 9 4.4 6.1
2019-Dec-04 14:24 288 8 gusting 10 4.4 6.1
2019-Dec-04 14:18 292 8 gusting 10 4.4 6.1
2019-Dec-04 14:00 290 9 gusting 13 4.4 6.1
2019-Dec-04 13:54 291 7 gusting 9 4.4 6.1
2019-Dec-04 13:48 287 9 gusting 13 3.9 6.1
2019-Dec-04 13:42 287 7 gusting 10 4.4 6.1
2019-Dec-04 13:36 287 9 gusting 11 4.4 6.1
2019-Dec-04 13:30 290 9 gusting 11 4.4 6.1
2019-Dec-04 13:24 297 8 gusting 9 4.4 6.1
2019-Dec-04 13:18 300 8 gusting 10 4.4 6.1
2019-Dec-04 13:12 303 7 gusting 9 4.4 6.1
2019-Dec-04 13:06 299 6 gusting 8 3.9 6.1
2019-Dec-04 13:00 295 6 gusting 9 3.9 6.1
2019-Dec-04 12:54 294 7 gusting 9 3.9 6.1
2019-Dec-04 12:48 285 6 gusting 10 3.9 6.1
2019-Dec-04 12:42 282 7 gusting 9 3.9 6.1
2019-Dec-04 12:36 282 6 gusting 9 3.9 6.1
2019-Dec-04 12:30 268 9 gusting 12 3.9 6.1
2019-Dec-04 12:24 268 11 gusting 13 4.4 6.1
2019-Dec-04 12:18 281 8 gusting 12 4.4 6.1
2019-Dec-04 12:12 280 8 gusting 13 4.4 6.7
2019-Dec-04 12:06 288 11 gusting 13 4.4 6.1
2019-Dec-04 12:00 290 9 gusting 13 4.4 6.1
2019-Dec-04 11:54 283 8 gusting 12 4.4 6.1
2019-Dec-04 11:48 290 11 gusting 14 4.4 6.1
2019-Dec-04 11:42 290 10 gusting 12 4.4 6.1
2019-Dec-04 11:36 283 9 gusting 12 4.4 6.1
2019-Dec-04 11:30 295 8 gusting 13 4.4 6.1
2019-Dec-04 11:24 289 10 gusting 13 4.4 6.1
2019-Dec-04 11:18 291 11 gusting 14 4.4 6.1
2019-Dec-04 11:12 288 10 gusting 13 4.4 6.1
2019-Dec-04 11:06 288 9 gusting 13 4.4 6.7
2019-Dec-04 11:00 285 9 gusting 10 4.4 6.7
2019-Dec-04 10:54 276 7 gusting 9 4.4 6.7
2019-Dec-04 10:48 290 7 gusting 9 4.4 6.7
2019-Dec-04 10:42 298 6 gusting 8 4.4 6.7
2019-Dec-04 10:36 288 6 gusting 8 4.4 6.7
2019-Dec-04 10:30 285 6 gusting 10 4.4 6.7
2019-Dec-04 10:24 270 7 gusting 9 4.4 6.7
2019-Dec-04 10:18 261 8 gusting 10 4.4 6.7
2019-Dec-04 10:12 259 7 gusting 9 4.4 6.7
2019-Dec-04 10:06 253 6 gusting 8 4.4 6.7
2019-Dec-04 10:00 248 7 gusting 8 4.4 6.7
2019-Dec-04 09:54 246 7 gusting 9 4.4 6.7
2019-Dec-04 09:48 257 7 gusting 8 4.4 6.7
2019-Dec-04 09:42 266 6 gusting 7 4.4 6.7
2019-Dec-04 09:36 266 5 gusting 6 3.9 6.7
2019-Dec-04 09:30 266 5 gusting 6 3.9 6.7
2019-Dec-04 09:24 253 5 gusting 6 4.4 6.7
2019-Dec-04 09:18 251 5 gusting 7 4.4 6.7
2019-Dec-04 09:12 258 6 gusting 8 4.4 6.7
2019-Dec-04 09:06 262 6 gusting 8 4.4 6.7
2019-Dec-04 09:00 284 6 gusting 8 3.9 6.7
2019-Dec-04 08:54 272 6 gusting 7 3.9 7.2
2019-Dec-04 08:48 286 6 gusting 7 3.9 7.2
2019-Dec-04 08:42 287 6 gusting 9 3.9 7.2
2019-Dec-04 08:36 281 6 gusting 7 3.9 7.2
2019-Dec-04 08:30 275 8 gusting 10 3.9 7.2
2019-Dec-04 08:24 273 7 gusting 9 3.9 7.2
2019-Dec-04 08:18 290 6 gusting 9 3.9 7.2
2019-Dec-04 08:12 289 6 gusting 8 3.9 7.2
2019-Dec-04 08:06 283 6 gusting 9 4.4 7.2
2019-Dec-04 08:00 293 6 gusting 9 3.9 7.2
2019-Dec-04 07:54 290 8 gusting 9 3.9 7.2
2019-Dec-04 07:48 292 6 gusting 9 3.9 6.7
2019-Dec-04 07:42 304 5 gusting 9 4.4 6.7
2019-Dec-04 07:36 294 6 gusting 10 4.4 6.7
2019-Dec-04 07:30 301 7 gusting 9 4.4 6.7
2019-Dec-04 07:24 287 7 gusting 10 4.4 6.7
2019-Dec-04 07:18 302 8 gusting 11 4.4 6.7
2019-Dec-04 07:12 292 8 gusting 11 4.4 6.7
2019-Dec-04 07:06 297 8 gusting 10 4.4 6.7
2019-Dec-04 07:00 300 7 gusting 10 4.4 6.7
2019-Dec-04 06:54 302 7 gusting 11 3.9 6.7
2019-Dec-04 06:48 305 7 gusting 10 3.9 6.7
2019-Dec-04 06:42 295 8 gusting 11 3.9 6.7
2019-Dec-04 06:36 302 7 gusting 8 3.9 6.1
2019-Dec-04 06:30 305 7 gusting 10 3.9 6.1
2019-Dec-04 06:24 303 7 gusting 12 3.9 6.1
2019-Dec-04 06:18 310 7 gusting 12 3.9 6.1
2019-Dec-04 06:12 305 9 gusting 12 3.9 6.1
2019-Dec-04 06:06 306 11 gusting 13 3.9 6.1
2019-Dec-04 06:00 307 9 gusting 13 3.9 6.1
2019-Dec-04 05:54 312 10 gusting 14 3.9 6.1
2019-Dec-04 05:48 308 11 gusting 15 3.9 6.1
2019-Dec-04 05:42 307 12 gusting 16 3.9 6.1
2019-Dec-04 05:36 303 13 gusting 15 3.9 6.1
2019-Dec-04 05:30 308 13 gusting 15 3.9 6.1
2019-Dec-04 05:24 306 10 gusting 14 4.4 6.1
2019-Dec-04 05:18 307 12 gusting 14 3.9 6.1
2019-Dec-04 05:12 298 13 gusting 14 3.9 6.1
2019-Dec-04 05:06 305 11 gusting 14 3.9 6.1
2019-Dec-04 05:00 310 10 gusting 13 3.9 6.1
2019-Dec-04 04:54 308 12 gusting 14 3.9 6.1
2019-Dec-04 04:48 312 10 gusting 13 3.9 6.1
2019-Dec-04 04:42 309 8 gusting 15 3.9 6.1
2019-Dec-04 04:36 313 10 gusting 14 3.9 6.1
2019-Dec-04 04:30 308 10 gusting 14 3.9 6.1
2019-Dec-04 04:24 314 9 gusting 13 3.9 6.1
2019-Dec-04 04:18 321 11 gusting 13 3.9 6.1
2019-Dec-04 04:12 308 10 gusting 12 3.9 6.1
2019-Dec-04 04:06 302 7 gusting 13 4.4 6.1
2019-Dec-04 04:00 305 10 gusting 13 3.9 6.1
2019-Dec-04 03:54 312 9 gusting 13 4.4 6.1
2019-Dec-04 03:48 312 9 gusting 13 4.4 6.1
2019-Dec-04 03:42 309 11 gusting 13 4.4 6.1
2019-Dec-04 03:36 307 11 gusting 14 4.4 6.1
2019-Dec-04 03:30 304 11 gusting 13 4.4 6.1
2019-Dec-04 03:24 310 10 gusting 14 4.4 6.1
2019-Dec-04 03:18 308 12 gusting 14 4.4 6.1
2019-Dec-04 03:12 304 11 gusting 13 4.4 6.1
2019-Dec-04 03:06 301 13 gusting 16 4.4 6.1
2019-Dec-04 03:00 311 11 gusting 14 4.4 6.1
2019-Dec-04 02:54 309 11 gusting 14 4.4 6.1
2019-Dec-04 02:48 308 12 gusting 16 4.4 6.1
2019-Dec-04 02:42 303 11 gusting 16 4.4 6.1
2019-Dec-04 02:36 306 11 gusting 16 4.4 6.1
2019-Dec-04 02:30 301 13 gusting 16 4.4 6.1
2019-Dec-04 02:24 304 11 gusting 15 4.4 6.1
2019-Dec-04 02:18 072 2 gusting 8 4.4 6.1
2019-Dec-04 02:12 308 6 gusting 17 4.4 6.1
2019-Dec-04 02:06 303 15 gusting 19 4.4 6.1
2019-Dec-04 02:00 301 16 gusting 19 4.4 6.1
2019-Dec-04 01:54 301 16 gusting 19 4.4 6.1
2019-Dec-04 01:48 299 16 gusting 19 4.4 6.1
2019-Dec-04 01:42 302 13 gusting 16 4.4 6.1
2019-Dec-04 01:36 305 13 gusting 17 5.0 6.1
2019-Dec-04 01:30 310 13 gusting 17 5.0 6.1
2019-Dec-04 01:24 311 12 gusting 16 5.0 6.1
2019-Dec-04 01:18 309 12 gusting 16 5.0 6.1
2019-Dec-04 01:12 316 13 gusting 15 5.0 6.1
2019-Dec-04 01:06 308 11 gusting 16 5.0 6.1
2019-Dec-04 01:00 308 12 gusting 17 5.0 6.1
2019-Dec-04 00:54 303 15 gusting 18 5.6 6.1
2019-Dec-04 00:48 307 13 gusting 16 5.6 6.1
2019-Dec-04 00:42 305 14 gusting 17 5.6 6.1
2019-Dec-04 00:36 303 14 gusting 19 5.6 6.1
2019-Dec-04 00:30 303 14 gusting 19 5.6 6.1
2019-Dec-04 00:24 302 14 gusting 19 5.6 6.1
2019-Dec-04 00:18 299 16 gusting 20 5.6 6.1
2019-Dec-04 00:12 306 17 gusting 19 5.6 6.1
2019-Dec-04 00:06 304 15 gusting 19 5.6 6.1
2019-Dec-04 00:00 310 12 gusting 16 5.6 6.1
2019-Dec-03 23:48 315 12 gusting 16 5.6 6.1
2019-Dec-03 23:42 320 11 gusting 16 5.6 6.1
2019-Dec-03 23:36 318 12 gusting 17 6.1 6.1
2019-Dec-03 23:30 308 14 gusting 19 6.1 6.1
2019-Dec-03 23:24 310 16 gusting 19 6.1 6.1
2019-Dec-03 23:18 308 13 gusting 18 6.1 6.1
2019-Dec-03 23:12 308 14 gusting 19 6.1 6.1
2019-Dec-03 23:06 304 3 gusting 10 6.1 6.1
2019-Dec-03 23:00 291 2 gusting 9 6.1 6.1
2019-Dec-03 22:54 289 3 gusting 9 6.1 6.1
2019-Dec-03 22:48 282 3 gusting 20 6.1 6.1
2019-Dec-03 22:42 311 16 gusting 21 6.1 6.1
2019-Dec-03 22:36 312 16 gusting 22 6.1 6.1
2019-Dec-03 22:30 310 16 gusting 24 6.1 6.1
2019-Dec-03 22:24 308 19 gusting 23 6.1 6.1
2019-Dec-03 22:18 308 19 gusting 24 6.1 6.1
2019-Dec-03 22:12 311 19 gusting 25 6.1 6.1
2019-Dec-03 22:06 310 17 gusting 23 6.1 6.1
2019-Dec-03 22:00 303 19 gusting 23 6.1 6.1
2019-Dec-03 21:54 301 19 gusting 24 6.1 6.1
2019-Dec-03 21:48 298 22 gusting 26 6.7 6.1
2019-Dec-03 21:42 300 20 gusting 27 6.1 6.1
2019-Dec-03 21:36 307 19 gusting 25 6.1 6.1
2019-Dec-03 21:30 303 19 gusting 25 6.1 6.1
2019-Dec-03 21:24 306 18 gusting 24 6.1 6.1
2019-Dec-03 21:18 306 16 gusting 22 6.1 6.1
2019-Dec-03 21:12 302 19 gusting 25 6.1 6.7
2019-Dec-03 21:06 305 16 gusting 24 6.1 6.1
2019-Dec-03 21:00 309 19 gusting 25 6.7 6.7
2019-Dec-03 20:54 306 17 gusting 26 6.7 6.7
2019-Dec-03 20:48 308 20 gusting 27 6.7 6.7
2019-Dec-03 20:42 304 22 gusting 27 6.7 6.7
2019-Dec-03 20:36 307 20 gusting 26 6.7 6.7
2019-Dec-03 20:30 297 19 gusting 29 6.7 6.7
2019-Dec-03 20:24 298 23 gusting 29 6.7 6.7
2019-Dec-03 20:18 300 23 gusting 29 6.7 6.7
2019-Dec-03 20:12 303 23 gusting 28 6.7 6.7
2019-Dec-03 20:06 298 26 gusting 29 6.7 6.7
2019-Dec-03 20:00 301 24 gusting 29 6.7 6.7
2019-Dec-03 19:54 299 26 gusting 32 6.7 6.7
2019-Dec-03 19:48 298 20 gusting 27 6.7 6.7
2019-Dec-03 19:42 300 22 gusting 27 6.7 6.7
2019-Dec-03 19:36 333 12 gusting 26 6.7 6.7
2019-Dec-03 19:30 320 5 gusting 14 6.7 6.7
2019-Dec-03 19:24 318 5 gusting 13 6.7 6.7
2019-Dec-03 19:18 334 3 gusting 13 6.7 6.7
2019-Dec-03 19:12 356 3 gusting 13 6.7 6.7
2019-Dec-03 19:06 351 4 gusting 12 6.7 6.7
2019-Dec-03 19:00 339 3 gusting 8 6.7 6.7